Location: Newark
(60.0000°N, 100.0000°E)
Time: 02:12:30
(UTC+00:00)

N. Korean satellite - Pass Details

Date: 25 November 2019
Orbit: 455 x 507 km, 97.2° (Epoch: 14 December)

Event Time Altitude Azimuth Distance (km) Brightness Sun altitude
Rises 00:20:32 0° 12° (NNE) 2,622 10.1 -9.1°
Reaches altitude 10° 00:22:43 10° 5° (N) 1,727 9.1 -8.8°
Maximum altitude 00:26:11 39° 296° (WNW) 769 7.1 -8.4°
Drops below altitude 10° 00:29:37 10° 227° (SW) 1,695 9.1 -8.0°
Sets 00:31:44 0° 219° (SW) 2,565 10.1 -7.8°
